OK1LPD-6 Weather Reports


time (UTC)temp
F
wind
direction
speed
knots
gust
knots
rain 1hr
in
rain 24hr
in
rain mn
in
humidity
%
barometer
mb
20260507151528 64 0 0.0 0.0 0.00 0.21 0.00 50 1012.7
20260507150514 66 0 0.0 0.0 0.00 0.22 0.21 50 1012.5
20260507145514 65 0 0.0 0.0 0.00 0.22 0.21 50 1012.7
20260507144525 66 0 0.0 0.0 0.00 0.22 0.21 50 1012.5
20260507143515 66 0 0.0 0.0 0.00 0.22 0.21 45 1012.3
20260507142515 70 0 0.0 0.0 0.00 0.22 0.21 41 1012.4
20260507141527 69 0 0.0 0.0 0.00 0.22 0.21 44 1012.1
20260507140515 71 337 0.0 0.9 0.00 0.22 0.21 41 1012.2
20260507135516 71 0 0.0 0.0 0.00 0.22 0.21 42 1012.1
20260507134530 70 0 0.0 0.0 0.00 0.22 0.21 42 1012.1
20260507133515 70 0 0.0 0.0 0.00 0.22 0.21 44 1012.3
20260507132515 67 0 0.0 0.0 0.00 0.22 0.21 44 1012.3
20260507131538 67 0 0.0 0.0 0.00 0.22 0.21 45 1012.3
20260507130515 67 0 0.0 0.0 0.00 0.22 0.21 45 1012.2
20260507125515 67 45 0.0 1.7 0.00 0.22 0.21 44 1012.1
20260507124536 68 0 0.0 0.0 0.00 0.22 0.21 44 1012.1
20260507123516 69 0 0.0 0.0 0.00 0.22 0.21 43 1012.2
20260507122516 68 0 0.0 0.0 0.00 0.22 0.21 44 1012.1
20260507121538 66 0 0.0 0.0 0.00 0.22 0.21 47 1012.3
20260507120516 65 0 0.0 0.0 0.00 0.22 0.21 50 1012.1
20260507115516 64 0 0.0 0.0 0.00 0.22 0.21 49 1012.2
20260507114536 64 0 0.0 0.0 0.00 0.22 0.21 49 1012.1
20260507113516 64 0 0.0 0.0 0.00 0.22 0.21 50 1012.2
20260507112517 64 0 0.0 0.0 0.00 0.22 0.21 50 1012.2
20260507111538 64 0 0.0 0.0 0.00 0.22 0.21 49 1012.0
20260507110517 65 0 0.0 0.0 0.00 0.22 0.21 48 1011.9
20260507105517 64 45 0.0 0.9 0.00 0.22 0.21 50 1012.0
20260507104536 65 0 0.0 0.0 0.00 0.22 0.21 45 1011.8
20260507103517 66 0 0.0 0.0 0.00 0.22 0.21 45 1011.7
20260507102517 65 0 0.0 0.0 0.00 0.22 0.21 47 1011.6
20260507101539 66 0 0.0 0.0 0.00 0.22 0.21 46 1011.9
20260507100517 64 0 0.0 0.0 0.00 0.22 0.21 51 1011.7
20260507095517 63 0 0.0 0.0 0.00 0.22 0.21 54 1011.8
20260507094537 63 96 0.0 0.9 0.00 0.22 0.21 55 1011.5
20260507093518 63 0 0.0 0.0 0.00 0.22 0.21 57 1011.4
20260507092518 62 0 0.0 0.0 0.00 0.22 0.21 58 1011.6
20260507091540 64 0 0.0 0.0 0.00 0.22 0.21 52 1011.1
20260507090518 63 0 0.0 0.0 0.01 0.22 0.21 57 1011.2
20260507085518 64 0 0.0 0.0 0.01 0.22 0.21 56 1011.1
20260507084539 62 0 0.0 0.0 0.01 0.22 0.21 59 1010.9
20260507083519 64 0 0.0 0.0 0.01 0.22 0.21 55 1011.0
20260507082518 64 181 0.0 0.9 0.01 0.22 0.21 55 1011.1
20260507081540 64 0 0.0 0.0 0.01 0.22 0.21 59 1010.9
20260507080519 62 0 0.0 0.0 0.00 0.21 0.20 62 1010.8
20260507075518 64 0 0.0 0.0 0.00 0.21 0.20 60 1010.6
20260507074538 62 0 0.0 0.0 0.00 0.21 0.20 65 1010.6
20260507073518 61 0 0.0 0.0 0.00 0.21 0.20 66 1010.5
20260507072519 60 0 0.0 0.0 0.00 0.21 0.20 70 1010.5
20260507071540 60 0 0.0 0.0 0.00 0.21 0.20 70 1010.3
20260507070519 61 0 0.0 0.0 0.00 0.21 0.20 71 1010.3
20260507065519 60 0 0.0 0.0 0.00 0.21 0.20 71 1010.2
20260507064539 60 0 0.0 0.0 0.00 0.21 0.20 72 1010.2
20260507063520 60 0 0.0 0.0 0.00 0.21 0.20 73 1010.2
20260507062519 60 0 0.0 0.0 0.00 0.21 0.20 72 1010.1
20260507061541 61 0 0.0 0.0 0.00 0.21 0.20 71 1010.0
20260507060520 61 0 0.0 0.0 0.00 0.21 0.20 71 1009.7
20260507055519 63 0 0.0 0.0 0.00 0.21 0.20 70 1009.7
20260507054531 63 0 0.0 0.0 0.00 0.21 0.20 70 1009.6
20260507053520 64 135 0.0 0.9 0.00 0.21 0.20 70 1009.5
20260507052520 60 181 0.0 0.9 0.00 0.21 0.20 78 1009.5
20260507051532 59 0 0.0 0.0 0.00 0.21 0.20 81 1009.4
20260507050520 59 0 0.0 0.0 0.00 0.21 0.20 83 1009.4
20260507045521 59 0 0.0 0.0 0.00 0.21 0.20 91 1009.3
20260507044532 58 135 0.0 0.9 0.00 0.21 0.20 97 1009.1
20260507043520 56 22 0.0 0.9 0.00 0.21 0.20 98 1009.0
20260507042520 53 0 0.0 0.0 0.00 0.21 0.20 99 1008.9
20260507041532 52 0 0.0 0.0 0.00 0.21 0.20 99 1009.0
20260507040522 51 0 0.0 0.0 0.00 0.21 0.20 99 1009.0
20260507035520 51 0 0.0 0.0 0.00 0.21 0.20 99 1008.9
20260507034532 51 0 0.0 0.0 0.00 0.21 0.20 99 1008.6
20260507033522 51 0 0.0 0.0 0.00 0.21 0.20 99 1008.4
20260507032520 51 0 0.0 0.0 0.00 0.21 0.20 99 1008.4
20260507031534 51 0 0.0 0.0 0.00 0.21 0.20 99 1008.4
20260507030521 52 0 0.0 0.0 0.00 0.21 0.20 99 1008.4
20260507025521 52 0 0.0 0.0 0.00 0.21 0.20 99 1008.4
20260507024532 52 0 0.0 0.0 0.00 0.21 0.20 99 1008.4
20260507023521 52 0 0.0 0.0 0.00 0.21 0.20 99 1008.4
20260507022521 52 0 0.0 0.0 0.00 0.21 0.20 99 1008.3
20260507021540 52 0 0.0 0.0 0.00 0.21 0.20 99 1008.2
20260507020522 53 0 0.0 0.0 0.00 0.21 0.20 99 1008.3
20260507015522 53 0 0.0 0.0 0.00 0.21 0.20 99 1008.2
20260507014541 53 0 0.0 0.0 0.00 0.21 0.20 99 1008.3
20260507013521 53 0 0.0 0.0 0.00 0.21 0.20 99 1008.3
20260507012523 53 0 0.0 0.0 0.00 0.21 0.20 99 1008.0
20260507011543 53 0 0.0 0.0 0.00 0.21 0.20 99 1008.0
20260507010522 54 0 0.0 0.0 0.00 0.21 0.20 99 1007.9
20260507005522 54 0 0.0 0.0 0.00 0.21 0.20 99 1007.8
20260507004541 54 0 0.0 0.0 0.00 0.21 0.20 99 1007.6
20260507003522 54 0 0.0 0.0 0.00 0.21 0.20 99 1007.5
20260507002523 55 0 0.0 0.0 0.00 0.21 0.20 97 1007.5
20260507001543 55 0 0.0 0.0 0.00 0.21 0.20 97 1007.5
20260507000523 55 0 0.0 0.0 0.00 0.21 0.20 97 1007.4
20260506235523 56 0 0.0 0.0 0.00 0.21 0.20 97 1007.3
20260506234541 56 0 0.0 0.0 0.00 0.21 0.20 97 1007.3
20260506233523 56 0 0.0 0.0 0.00 0.21 0.20 97 1007.0
20260506232523 56 0 0.0 0.0 0.00 0.21 0.20 96 1006.9
20260506231544 56 0 0.0 0.0 0.00 0.21 0.20 96 1007.1
20260506230523 56 0 0.0 0.0 0.00 0.21 0.20 96 1007.3
20260506225523 57 0 0.0 0.0 0.00 0.21 0.20 96 1007.0
20260506224543 57 0 0.0 0.0 0.00 0.21 0.20 96 1006.7
20260506223523 57 0 0.0 0.0 0.00 0.21 0.20 96 1006.9
20260506222524 57 0 0.0 0.0 0.00 0.21 0.20 96 1007.1
20260506221545 57 0 0.0 0.0 0.00 0.21 0.20 95 1006.9
20260506220524 57 0 0.0 0.0 0.00 0.22 0.20 94 1007.0
20260506215524 57 0 0.0 0.0 0.00 0.24 0.20 94 1006.7
20260506214544 57 0 0.0 0.0 0.02 0.25 0.20 94 1006.7
20260506213525 57 0 0.0 0.0 0.05 0.26 0.20 93 1006.6
20260506212524 57 0 0.0 0.0 0.07 0.28 0.20 92 1006.3
20260506211546 58 0 0.0 0.0 0.08 0.31 0.20 92 1006.4
20260506210525 58 0 0.0 0.0 0.19 0.34 0.20 92 1006.5
20260506205525 58 0 0.0 0.0 0.19 0.35 0.20 93 1006.5
20260506204544 58 0 0.0 0.0 0.17 0.37 0.18 93 1006.5
20260506203525 58 0 0.0 0.0 0.14 0.39 0.15 93 1006.6
20260506202525 58 0 0.0 0.0 0.12 0.38 0.13 91 1006.8
20260506201547 59 0 0.0 0.0 0.11 0.37 0.12 89 1007.1
20260506200524 60 0 0.0 0.0 0.00 0.26 0.01 85 1006.7
20260506195525 60 0 0.0 0.0 0.00 0.26 0.01 85 1006.1
20260506194544 60 0 0.0 0.0 0.00 0.26 0.01 84 1005.6
20260506193525 61 0 0.0 0.0 0.00 0.26 0.01 82 1005.3
20260506192526 61 0 0.0 0.0 0.00 0.26 0.01 82 1005.5
20260506191547 61 0 0.0 0.0 0.00 0.26 0.01 82 1005.5
20260506190526 60 0 0.0 0.0 0.00 0.26 0.01 86 1005.3
20260506185525 60 0 0.0 0.0 0.00 0.26 0.01 86 1004.9
20260506184545 60 0 0.0 0.0 0.00 0.26 0.01 86 1004.9
20260506183525 60 0 0.0 0.0 0.00 0.26 0.01 85 1004.8
20260506182526 61 0 0.0 0.0 0.00 0.26 0.01 83 1004.7
20260506181546 62 0 0.0 0.0 0.00 0.26 0.01 81 1004.3
20260506180527 63 0 0.0 0.0 0.00 0.26 0.01 79 1004.3
20260506175526 63 0 0.0 0.0 0.00 0.26 0.01 78 1004.3
20260506174539 63 0 0.0 0.0 0.00 0.26 0.01 77 1004.3
20260506173526 64 0 0.0 0.0 0.00 0.26 0.01 74 1004.2
20260506172526 65 0 0.0 0.0 0.00 0.26 0.01 72 1004.2
20260506171538 67 0 0.0 0.0 0.00 0.26 0.01 70 1004.3
20260506170527 65 0 0.0 0.0 0.00 0.26 0.01 76 1004.2
20260506165527 64 0 0.0 0.0 0.00 0.26 0.01 76 1004.1
20260506164537 63 0 0.0 0.0 0.00 0.26 0.01 77 1004.1
20260506163527 64 0 0.0 0.0 0.00 0.26 0.01 72 1004.2
20260506162527 64 0 0.0 0.0 0.00 0.26 0.01 70 1004.5
20260506161539 64 0 0.0 0.0 0.01 0.26 0.01 69 1004.4
20260506160527 66 0 0.0 0.0 0.02 0.26 0.01 71 1004.5
20260506155527 66 0 0.0 0.0 0.02 0.26 0.01 71 1004.7
20260506154539 64 0 0.0 0.0 0.02 0.26 0.01 75 1004.5
20260506153527 62 0 0.0 0.0 0.02 0.26 0.01 78 1004.7
20260506152528 62 0 0.0 0.0 0.02 0.26 0.01 78 1005.0